Погода в Анучине

Россия / Пензенская область     52°58′06″N   43°52′29″E
темп.,
°C
ветер,
м/с
пор.,
м/с
влажн.,
%
обл.,
%
осадки,
мм/ч
давл.,
гПа
погр.,
м
6 мая, чт
чт600:00+7юз49825 0.0 1015155
03:00+6юз49845 0.0 1016160
06:00+7ююз388326 0.0 1016188
09:00+13ююз6961100 0.0 1016650
12:00+15ююз7953100 0.0 10161535
15:00+16ююз7950100 0.0 10151833
18:00+14ю5963100 0.0 1014430
21:00+11ю41175100 0.0 1014219
7 мая, пт
пт700:00+10ю51373100 0.0 1014262
03:00+11ю51367100 0.0 1013338
06:00+10ю51270100 0.0 1013286
09:00+11ю487399 0.0 1013362
12:00+15зюз6768100 0.9 10141042
15:00+11ссз5576100 1.8 1016604
18:00+10ссз447696 0.0 1017625
21:00+7св22890 0.0 101825
8 мая, сб
сб800:00+6всв22900 0.0 101820
03:00+5св22905 0.0 101816
06:00+6вюв228732 0.0 101784
09:00+12ю3575100 0.0 1016629
12:00+15ю675399 0.0 1014998
15:00+17ю695297 0.0 10131202
18:00+16ю61264100 0.0 1011638
21:00+14ю61483100 0.6 1010636
9 мая, вс
вс900:00+12ю41095100 1.5 1009405
03:00+10зсз6894100 2.2 1010515
06:00+7зсз4886100 0.0 1013504
09:00+6ссз5683100 0.0 1013464
12:00+7ссз3786100 1.1 1014597
15:00+6ссз6891100 6.1 1016706
18:00+6с71193100 4.1 1017688
21:00+5ссв81493100 6.9 1018640
10 мая, пн
пн1000:00+5ссв91594100 4.4 1018595
03:00+6ссв91695100 9.6 1019692
06:00+6ссв101893100 3.4 1020673
09:00+6св101792100 3.9 1021684
12:00+7ссв101693100 1.2 1022463
15:00+9св91692100 1.4 1022520
18:00+11св81590100 0.0 1023562
21:00+10св91894100 0.0 1023431